AV194 Weather Reports


time (UTC)temp
C
wind
direction
speed
KPH
gust
KPH
rain 1hr
cm
rain 24hr
cm
rain mn
cm
humidity
%
barometer
mb
20260507060551 10 323 0.0 1.6 0.00 0.84 0.00 90 1005.9
20260507060050 10 332 0.0 3.2 0.00 0.84 0.00 90 1005.8
20260507055550 10 332 0.0 3.2 0.00 0.84 0.00 90 1005.8
20260507055052 10 333 0.0 3.2 0.00 0.84 0.00 90 1006.0
20260507054626 10 344 0.0 6.4 0.00 0.84 0.00 90 1006.2
20260507054049 10 297 0.0 6.4 0.00 0.84 0.00 90 1006.4
20260507053550 10 236 0.0 6.4 0.00 0.84 0.00 91 1006.2
20260507053052 10 268 1.6 4.8 0.00 0.84 0.00 91 1006.2
20260507052546 10 293 0.0 8.0 0.00 0.84 0.00 91 1006.2
20260507052046 11 292 0.0 8.0 0.00 0.84 0.00 92 1006.3
20260507051546 11 247 0.0 3.2 0.00 0.84 0.00 92 1006.2
20260507051050 11 323 0.0 3.2 0.00 0.84 0.00 92 1006.2
20260507050544 11 317 1.6 3.2 0.00 0.84 0.00 92 1006.2
20260507050052 11 327 0.0 3.2 0.00 0.84 0.00 92 1006.2
20260507045544 11 327 0.0 3.2 0.00 0.84 0.00 92 1006.1
20260507045043 11 327 0.0 6.4 0.00 0.84 0.00 92 1006.0
20260507044549 11 355 1.6 8.0 0.00 0.84 0.00 92 1006.0
20260507044041 11 40 1.6 8.0 0.00 0.84 0.00 93 1005.8
20260507043541 11 310 0.0 3.2 0.00 0.84 0.00 92 1006.1
20260507043044 11 173 0.0 3.2 0.00 0.84 0.00 93 1006.2
20260507042540 11 299 0.0 6.4 0.00 0.84 0.00 93 1006.1
20260507042038 11 326 1.6 6.4 0.00 0.84 0.00 93 1006.1
20260507041541 11 304 0.0 6.4 0.00 0.84 0.00 93 1006.2
20260507041037 11 296 0.0 3.2 0.00 0.84 0.00 94 1006.3
20260507040536 12 287 0.0 3.2 0.00 0.84 0.00 94 1006.2
20260507040037 12 257 0.0 3.2 0.00 0.84 0.84 94 1006.1
20260507035534 12 284 0.0 6.4 0.00 0.84 0.84 94 1005.9
20260507035033 12 332 1.6 6.4 0.00 0.84 0.84 94 1005.8
20260507034533 12 316 1.6 4.8 0.00 0.84 0.84 94 1005.6
20260507034032 12 318 1.6 6.4 0.00 0.84 0.84 95 1005.7
20260507033532 12 311 1.6 4.8 0.00 0.84 0.84 95 1005.5
20260507033033 12 302 1.6 6.4 0.00 0.84 0.84 95 1005.4
20260507032530 12 319 1.6 9.7 0.00 0.84 0.84 95 1005.3
20260507032029 12 338 4.8 9.7 0.00 0.84 0.84 95 1005.4
20260507031529 13 360 1.6 4.8 0.00 0.84 0.84 96 1005.4
20260507031032 13 331 0.0 6.4 0.00 0.84 0.84 96 1005.1
20260507030529 13 348 1.6 4.8 0.00 0.84 0.84 95 1005.1
20260507030027 13 16 1.6 8.0 0.00 0.84 0.84 95 1005.0
20260507025526 13 98 1.6 8.0 0.00 0.84 0.84 96 1005.0
20260507025026 13 286 0.0 3.2 0.00 0.84 0.84 96 1005.1
20260507024526 14 293 0.0 6.4 0.00 0.84 0.84 96 1005.1
20260507024025 14 328 0.0 6.4 0.00 0.84 0.84 96 1004.9
20260507023526 14 338 0.0 6.4 0.00 0.84 0.84 96 1004.9
20260507023028 14 300 1.6 8.0 0.00 0.84 0.84 95 1004.9
20260507022530 15 248 1.6 12.9 0.00 0.84 0.84 96 1004.9
20260507022027 15 298 1.6 12.9 0.00 0.84 0.84 96 1004.7
20260507021524 15 218 0.0 1.6 0.00 0.84 0.84 96 1004.4
20260507021024 15 215 0.0 3.2 0.00 0.84 0.84 96 1004.3
20260507020524 15 215 0.0 3.2 0.00 0.84 0.84 96 1004.3
20260507020024 15 206 0.0 1.6 0.00 0.84 0.84 96 1004.3
20260507015525 15 206 0.0 3.2 0.00 0.84 0.84 96 1004.4
20260507015023 15 206 0.0 3.2 0.00 0.84 0.84 96 1004.3
20260507014533 15 206 0.0 3.2 0.00 0.84 0.84 96 1004.2
20260507014023 15 206 0.0 3.2 0.00 0.84 0.84 96 1004.2
20260507013522 15 206 0.0 3.2 0.00 0.84 0.84 96 1004.2
20260507013022 15 193 0.0 3.2 0.00 0.84 0.84 96 1004.3
20260507012522 15 212 0.0 3.2 0.00 0.84 0.84 96 1004.2
20260507012024 15 212 0.0 3.2 0.00 0.84 0.84 96 1004.2
20260507011522 15 212 0.0 4.8 0.00 0.84 0.84 96 1004.3
20260507011023 15 172 1.6 3.2 0.00 0.84 0.84 96 1004.3
20260507010522 15 184 0.0 3.2 0.00 0.84 0.84 96 1004.2
20260507010021 15 205 0.0 4.8 0.00 0.84 0.84 96 1004.2
20260507005522 15 202 0.0 6.4 0.00 0.84 0.84 96 1004.3
20260507005020 15 202 1.6 6.4 0.00 0.84 0.84 96 1004.2
20260507004523 15 233 0.0 4.8 0.00 0.84 0.84 95 1004.2
20260507004023 15 205 1.6 6.4 0.00 0.84 0.84 95 1004.2
20260507003521 15 200 0.0 3.2 0.00 0.84 0.84 95 1004.0
20260507003021 15 237 1.6 4.8 0.00 0.84 0.84 95 1003.9
20260507002519 15 219 0.0 6.4 0.00 0.84 0.84 95 1003.9
20260507002021 15 174 1.6 8.0 0.00 0.84 0.84 95 1003.9
20260507001525 15 245 3.2 8.0 0.00 0.84 0.84 95 1004.0
20260507001020 15 171 1.6 8.0 0.00 0.84 0.84 95 1004.0
20260507000519 15 219 1.6 4.8 0.00 0.84 0.84 95 1003.9
20260507000030 15 229 1.6 6.4 0.03 0.84 0.84 95 1003.9
20260506235519 15 238 1.6 6.4 0.03 0.84 0.84 95 1003.9
20260506235017 15 215 1.6 6.4 0.05 0.84 0.84 95 1003.9
20260506234518 15 199 1.6 6.4 0.05 0.84 0.84 95 1003.9
20260506234018 15 222 1.6 6.4 0.05 0.84 0.84 95 1003.8
20260506233518 15 223 1.6 8.0 0.05 0.84 0.84 95 1003.8
20260506233017 15 244 3.2 8.0 0.05 0.84 0.84 95 1003.8
20260506232517 15 196 1.6 8.0 0.05 0.84 0.84 95 1003.8
20260506232016 15 196 3.2 8.0 0.05 0.84 0.84 95 1003.9
20260506231516 15 187 3.2 8.0 0.05 0.84 0.84 95 1003.9
20260506231018 15 155 3.2 9.7 0.05 0.84 0.84 95 1003.8
20260506230515 15 181 3.2 9.7 0.05 0.84 0.84 95 1003.9
20260506230017 15 232 1.6 8.0 0.03 0.81 0.81 95 1004.0
20260506225517 15 174 1.6 8.0 0.03 0.81 0.81 95 1004.0
20260506225014 15 230 1.6 6.4 0.00 0.79 0.79 95 1004.1
20260506224514 15 209 1.6 11.3 0.00 0.79 0.79 95 1004.1
20260506224015 15 225 4.8 11.3 0.00 0.79 0.79 95 1004.1
20260506223513 15 180 1.6 6.4 0.00 0.79 0.79 95 1004.1
20260506223013 15 171 1.6 6.4 0.00 0.79 0.79 95 1004.0
20260506222513 15 173 0.0 8.0 0.03 0.79 0.79 95 1004.1
20260506222013 15 193 0.0 8.0 0.03 0.79 0.79 95 1004.1
20260506221512 15 178 1.6 8.0 0.05 0.79 0.79 95 1004.1
20260506221017 15 181 1.6 9.7 0.05 0.79 0.79 95 1004.2
20260506220512 15 190 0.0 9.7 0.08 0.79 0.79 95 1004.2
20260506220019 15 183 1.6 8.0 0.08 0.79 0.79 95 1004.3
20260506215516 15 214 1.6 6.4 0.10 0.79 0.79 95 1004.3
20260506215010 15 217 0.0 6.4 0.10 0.79 0.79 95 1004.3
20260506214511 15 229 1.6 6.4 0.13 0.79 0.79 94 1004.3
20260506214009 15 311 1.6 8.0 0.13 0.79 0.79 94 1004.3
20260506213509 15 189 3.2 8.0 0.15 0.79 0.79 94 1004.2
20260506213127 15 215 0.0 8.0 0.15 0.79 0.79 94 1004.3
20260506212508 15 209 3.2 6.4 0.15 0.76 0.76 94 1004.3
20260506212008 15 188 1.6 6.4 0.15 0.76 0.76 94 1004.4
20260506211510 15 200 1.6 6.4 0.13 0.71 0.71 94 1004.4
20260506211007 16 252 1.6 8.0 0.13 0.71 0.71 94 1004.5
20260506210506 16 202 3.2 11.3 0.13 0.71 0.71 94 1004.5
20260506210009 16 230 3.2 11.3 0.15 0.71 0.71 94 1004.6
20260506205505 16 179 1.6 11.3 0.15 0.69 0.69 94 1004.6
20260506205005 16 200 3.2 12.9 0.15 0.69 0.69 94 1004.4
20260506204505 16 242 3.2 12.9 0.13 0.66 0.66 94 1004.6
20260506204004 16 115 3.2 8.0 0.13 0.66 0.66 94 1004.6
20260506203508 16 165 1.6 6.4 0.10 0.64 0.64 93 1004.6
20260506203007 16 206 1.6 11.3 0.08 0.61 0.61 94 1004.7
20260506202505 16 242 3.2 11.3 0.08 0.61 0.61 94 1004.6
20260506202004 16 208 3.2 9.7 0.08 0.61 0.61 94 1004.7
20260506201504 16 222 4.8 9.7 0.08 0.61 0.61 94 1004.7
20260506201003 16 166 3.2 8.0 0.05 0.58 0.58 94 1004.7
20260506200505 16 172 1.6 9.7 0.08 0.58 0.58 94 1004.8
20260506200004 16 224 4.8 9.7 0.05 0.56 0.56 94 1004.9
20260506195503 16 239 1.6 8.0 0.03 0.53 0.53 94 1005.0
20260506195003 16 208 1.6 6.4 0.03 0.53 0.53 94 1005.0
20260506194503 16 198 0.0 3.2 0.05 0.53 0.53 94 1005.0
20260506194003 16 263 0.0 3.2 0.05 0.53 0.53 94 1005.0
20260506193502 16 219 0.0 9.7 0.08 0.53 0.53 94 1005.0
20260506193002 16 213 1.6 9.7 0.08 0.53 0.53 94 1004.9
20260506192506 16 224 1.6 3.2 0.10 0.53 0.53 94 1004.9
20260506192002 16 218 1.6 9.7 0.13 0.53 0.53 94 1004.8
20260506191502 16 203 1.6 9.7 0.15 0.53 0.53 94 1004.7
20260506191002 16 226 1.6 6.4 0.18 0.51 0.51 94 1004.6
20260506190502 16 161 1.6 4.8 0.25 0.51 0.51 93 1004.6
20260506185559 16 182 0.0 6.4 0.33 0.51 0.51 93 1005.1
20260506185059 16 188 1.6 6.4 0.36 0.51 0.51 93 1005.0
20260506184559 16 185 0.0 6.4 0.33 0.48 0.48 93 1005.1
20260506184058 16 209 0.0 1.6 0.36 0.48 0.48 93 1005.1
20260506183558 16 202 0.0 1.6 0.38 0.46 0.46 93 1005.4
20260506183058 16 202 0.0 1.6 0.41 0.46 0.46 93 1005.5
20260506182557 16 202 0.0 3.2 0.41 0.43 0.43 93 1005.5
20260506182056 16 271 0.0 3.2 0.43 0.43 0.43 92 1005.5
20260506181556 16 275 0.0 3.2 0.41 0.41 0.41 92 1005.7
20260506181056 16 219 0.0 3.2 0.33 0.33 0.33 91 1005.7
20260506180557 17 212 0.0 3.2 0.25 0.25 0.25 91 1005.7
20260506180104 17 169 0.0 0.0 0.20 0.20 0.20 91 1005.6
20260506175554 17 169 0.0 0.0 0.18 0.18 0.18 90 1005.7
20260506175058 17 169 0.0 1.6 0.15 0.15 0.15 89 1005.9
20260506174556 17 169 0.0 3.2 0.15 0.15 0.15 88 1005.8
20260506174054 17 102 0.0 6.4 0.13 0.13 0.13 86 1005.7
20260506173553 18 213 0.0 6.4 0.08 0.08 0.08 84 1005.9
20260506173058 18 186 0.0 4.8 0.05 0.05 0.05 82 1005.8
20260506172552 19 130 1.6 6.4 0.03 0.03 0.03 78 1005.5
20260506172052 20 202 1.6 6.4 0.00 0.00 0.00 73 1005.5
20260506171557 20 211 1.6 8.0 0.00 0.00 0.00 68 1005.4
20260506171054 21 144 0.0 11.3 0.00 0.00 0.00 66 1005.2
20260506170552 21 206 1.6 11.3 0.00 0.00 0.00 64 1005.4
20260506170103 21 223 4.8 12.9 0.00 0.00 0.00 63 1005.4
20260506165551 21 245 3.2 12.9 0.00 0.00 0.00 63 1005.4
20260506165051 21 211 3.2 12.9 0.00 0.00 0.00 62 1005.6
20260506164551 21 238 1.6 6.4 0.00 0.00 0.00 63 1005.6
20260506164053 21 236 1.6 8.0 0.00 0.00 0.00 63 1005.6
20260506163549 21 244 1.6 8.0 0.00 0.00 0.00 63 1005.7
20260506163109 21 230 1.6 8.0 0.00 0.00 0.00 63 1005.7
20260506162546 21 215 3.2 8.0 0.00 0.00 0.00 64 1005.8
20260506162048 21 173 1.6 12.9 0.00 0.00 0.00 64 1005.9
20260506161546 21 168 4.8 12.9 0.00 0.00 0.00 64 1006.0
20260506161044 21 200 3.2 11.3 0.00 0.00 0.00 65 1006.0
20260506160544 21 227 6.4 11.3 0.00 0.00 0.00 65 1006.2
20260506160042 21 169 3.2 8.0 0.00 0.00 0.00 66 1006.3
20260506155543 21 181 1.6 9.7 0.00 0.00 0.00 66 1006.5
20260506155040 21 237 0.0 14.5 0.00 0.00 0.00 66 1006.6
20260506154553 20 197 4.8 12.9 0.00 0.00 0.00 67 1006.7
20260506154038 20 278 6.4 12.9 0.00 0.00 0.00 67 1006.8
20260506153537 20 195 4.8 8.0 0.00 0.00 0.00 67 1006.9
20260506153048 20 219 1.6 8.0 0.00 0.00 0.00 66 1006.8
20260506152537 20 171 1.6 11.3 0.00 0.00 0.00 68 1007.1
20260506152038 20 197 4.8 11.3 0.00 0.00 0.00 67 1007.1
20260506151537 20 231 1.6 17.7 0.00 0.00 0.00 68 1007.2
20260506151038 20 265 3.2 11.3 0.00 0.00 0.00 67 1007.2
20260506150537 20 213 4.8 16.1 0.00 0.00 0.00 67 1007.3
20260506150036 20 265 6.4 12.9 0.00 0.00 0.00 68 1007.2
20260506145536 20 213 4.8 9.7 0.00 0.00 0.00 69 1007.1
20260506145035 20 251 3.2 9.7 0.00 0.00 0.00 70 1007.1
20260506144534 20 243 1.6 12.9 0.00 0.00 0.00 69 1007.3
20260506144034 20 254 4.8 12.9 0.00 0.00 0.00 69 1007.3
20260506143537 20 203 1.6 9.7 0.00 0.00 0.00 69 1007.1
20260506143045 20 211 1.6 9.7 0.00 0.00 0.00 70 1007.1
20260506142531 20 211 1.6 9.7 0.00 0.00 0.00 71 1007.0
20260506142030 19 186 1.6 9.7 0.00 0.00 0.00 73 1007.0
20260506141534 19 182 1.6 9.7 0.00 0.00 0.00 72 1007.1
20260506141031 19 177 3.2 11.3 0.00 0.00 0.00 73 1007.1
20260506140530 19 200 4.8 11.3 0.00 0.00 0.00 72 1006.9
20260506140028 19 165 1.6 8.0 0.00 0.00 0.00 73 1006.8
20260506135526 19 219 3.2 9.7 0.00 0.00 0.00 72 1006.8
20260506135026 19 208 4.8 11.3 0.00 0.00 0.00 73 1007.1
20260506134525 19 205 4.8 11.3 0.00 0.00 0.00 74 1007.0
20260506134025 18 202 1.6 4.8 0.00 0.00 0.00 74 1007.0
20260506133523 18 241 3.2 9.7 0.00 0.00 0.00 75 1007.2
20260506133021 18 190 1.6 8.0 0.00 0.00 0.00 75 1007.3
20260506132520 18 267 1.6 14.5 0.00 0.00 0.00 74 1007.3
20260506132019 18 252 4.8 14.5 0.00 0.00 0.00 75 1007.4
20260506131519 18 236 4.8 11.3 0.00 0.00 0.00 75 1007.5
20260506131021 18 161 4.8 12.9 0.00 0.00 0.00 75 1007.6
20260506130519 18 221 4.8 12.9 0.00 0.00 0.00 75 1007.6
20260506130018 18 265 4.8 9.7 0.00 0.00 0.00 75 1007.6
20260506125517 18 181 1.6 8.0 0.00 0.00 0.00 75 1007.5
20260506125017 18 168 3.2 12.9 0.00 0.00 0.00 75 1007.5
20260506124517 18 215 4.8 12.9 0.00 0.00 0.00 75 1007.6
20260506124016 18 175 4.8 9.7 0.00 0.00 0.00 75 1007.7
20260506123515 18 177 1.6 6.4 0.00 0.00 0.00 75 1007.5
20260506123014 17 91 1.6 8.0 0.00 0.00 0.00 77 1007.5
20260506122513 17 215 1.6 8.0 0.00 0.00 0.00 77 1007.3
20260506122012 17 201 3.2 8.0 0.00 0.00 0.00 77 1007.4
20260506121512 17 184 3.2 9.7 0.00 0.00 0.00 77 1007.5
20260506121012 17 249 3.2 11.3 0.00 0.00 0.00 77 1007.7
20260506120512 17 201 4.8 12.9 0.00 0.00 0.00 76 1007.7
20260506120011 17 213 4.8 11.3 0.00 0.00 0.00 78 1007.7
20260506115510 17 187 3.2 11.3 0.00 0.00 0.00 79 1007.6
20260506115008 16 203 1.6 8.0 0.00 0.00 0.00 80 1007.8
20260506114510 16 195 1.6 8.0 0.00 0.00 0.00 79 1007.9
20260506114006 16 211 1.6 12.9 0.00 0.00 0.00 80 1008.0
20260506113506 16 206 1.6 12.9 0.00 0.00 0.00 80 1007.9
20260506113006 16 190 3.2 8.0 0.00 0.00 0.00 81 1008.0
20260506112505 16 188 1.6 6.4 0.00 0.00 0.00 81 1007.9
20260506112003 16 221 3.2 9.7 0.00 0.00 0.00 81 1008.1
20260506111506 16 180 1.6 9.7 0.00 0.00 0.00 81 1008.1
20260506111003 16 254 1.6 4.8 0.00 0.00 0.00 81 1008.1
20260506110504 16 223 1.6 4.8 0.00 0.00 0.00 81 1008.0
20260506110002 15 227 1.6 6.4 0.00 0.00 0.00 82 1008.0
20260506105602 15 238 1.6 9.7 0.00 0.00 0.00 82 1008.0
20260506105001 15 246 3.2 9.7 0.00 0.00 0.00 83 1008.1
20260506104600 15 224 1.6 6.4 0.00 0.00 0.00 84 1008.1
20260506104058 15 180 0.0 6.4 0.00 0.00 0.00 84 1008.1
20260506103557 14 219 0.0 3.2 0.00 0.00 0.00 84 1008.2
20260506103057 14 222 1.6 6.4 0.00 0.00 0.00 84 1008.1
20260506102557 14 208 1.6 8.0 0.00 0.00 0.00 85 1008.0
20260506102057 14 229 3.2 8.0 0.00 0.00 0.00 85 1008.0
20260506101604 14 196 0.0 1.6 0.00 0.00 0.00 85 1007.9
20260506101055 14 190 0.0 3.2 0.00 0.00 0.00 86 1007.9
20260506100555 14 190 0.0 3.2 0.00 0.00 0.00 86 1008.1
20260506100053 13 189 0.0 3.2 0.00 0.00 0.00 86 1008.0
20260506095556 13 189 0.0 6.4 0.00 0.00 0.00 86 1008.1
20260506095053 13 182 0.0 3.2 0.00 0.00 0.00 86 1008.2
20260506094615 13 194 0.0 3.2 0.00 0.00 0.00 86 1008.1
20260506094052 13 194 0.0 3.2 0.00 0.00 0.00 87 1008.0
20260506093551 13 194 0.0 3.2 0.00 0.00 0.00 86 1007.9
20260506093055 13 209 0.0 3.2 0.00 0.00 0.00 87 1007.9
20260506092551 13 186 0.0 3.2 0.00 0.00 0.00 87 1007.8
20260506092050 13 184 0.0 6.4 0.00 0.00 0.00 86 1007.9
20260506091550 13 206 0.0 3.2 0.00 0.00 0.00 86 1008.1
20260506091049 13 206 0.0 3.2 0.00 0.00 0.00 86 1008.0
20260506090549 13 206 0.0 3.2 0.00 0.00 0.00 86 1007.9
20260506090048 13 189 0.0 6.4 0.00 0.00 0.00 85 1007.8
20260506085548 13 189 0.0 6.4 0.00 0.00 0.00 85 1007.9
20260506085048 13 194 0.0 1.6 0.00 0.00 0.00 85 1008.0
20260506084548 13 186 0.0 3.2 0.00 0.00 0.00 85 1008.0
20260506084051 13 180 0.0 3.2 0.00 0.00 0.00 84 1007.9
20260506083546 13 180 0.0 3.2 0.00 0.00 0.00 84 1008.1
20260506083046 13 180 0.0 3.2 0.00 0.00 0.00 83 1008.0
20260506082550 13 84 0.0 1.6 0.00 0.00 0.00 84 1008.0
20260506082045 13 84 0.0 1.6 0.00 0.00 0.00 83 1007.9
20260506081545 13 60 0.0 1.6 0.00 0.00 0.00 83 1007.9
20260506081046 13 60 0.0 1.6 0.00 0.00 0.00 83 1007.9
20260506080546 13 60 0.0 3.2 0.00 0.00 0.00 83 1007.9
20260506073046 13 214 0.0 1.6 0.00 0.00 0.00 81 1007.8
20260506072542 13 214 0.0 3.2 0.00 0.00 0.00 82 1007.7
20260506072042 13 214 1.6 3.2 0.00 0.00 0.00 81 1007.7
20260506071542 13 211 0.0 1.6 0.00 0.00 0.00 81 1007.6
20260506071041 13 211 0.0 1.6 0.00 0.00 0.00 81 1007.6
20260506070642 13 211 0.0 1.6 0.00 0.00 0.00 81 1007.6
20260506062034 15 211 0.0 0.0 0.00 0.00 0.00 77 1007.7
20260506061536 15 211 0.0 1.6 0.00 0.00 0.00 77 1007.6
20260506061033 15 211 0.0 1.6 0.00 0.00 0.00 76 1007.5